FW1945 Weather Reports


Display with metric or nautical units.
time (UTC)temp
F
wind
direction
speed
MPH
gust
MPH
rain 1hr
in
rain 24hr
in
rain mn
in
humidity
%
barometer
mb
20260507191534 70 324 3.0 14.0 0.00 0.00 0.00 41 1016.4
20260507190035 69 324 5.0 14.0 0.00 0.00 0.00 43 1016.7
20260507184534 68 355 4.0 15.0 0.00 0.00 0.00 46 1016.9
20260507183056 68 14 4.0 12.0 0.00 0.00 0.00 48 1017.1
20260507181538 67 26 3.0 9.0 0.00 0.00 0.00 52 1017.2
20260507180033 65 28 5.0 14.0 0.00 0.00 0.00 54 1017.3
20260507174534 64 7 3.0 10.0 0.00 0.00 0.00 56 1017.4
20260507173034 64 21 3.0 10.0 0.00 0.00 0.00 59 1017.7
20260507171539 63 348 3.0 12.0 0.00 0.00 0.00 60 1017.7
20260507170040 62 12 3.0 11.0 0.00 0.00 0.00 62 1017.8
20260507164538 61 11 4.0 14.0 0.00 0.00 0.00 64 1017.9
20260507161539 59 304 1.0 6.0 0.00 0.00 0.00 67 1018.1
20260507153042 56 192 0.0 7.0 0.00 0.00 0.00 77 1018.6
20260507151541 55 131 2.0 6.0 0.00 0.00 0.00 79 1018.6
20260507151537 54 195 2.0 7.0 0.00 0.00 0.00 80 1018.7
20260507144538 53 198 3.0 6.0 0.00 0.00 0.00 80 1018.5
20260507143151 53 243 1.0 4.0 0.00 0.00 0.00 79 1018.5
20260507141535 52 172 2.0 5.0 0.00 0.00 0.00 80 1018.4
20260507134612 53 75 2.0 8.0 0.00 0.00 0.00 77 1018.1
20260507133034 54 343 2.0 9.0 0.00 0.00 0.00 76 1017.9
20260507131537 54 301 5.0 12.0 0.00 0.00 0.00 76 1017.8
20260507130035 54 301 6.0 16.0 0.00 0.00 0.00 76 1017.9
20260507124539 54 305 6.0 13.0 0.00 0.00 0.00 76 1017.9
20260507123031 53 316 3.0 13.0 0.00 0.00 0.00 78 1018.0
20260507121536 54 314 2.0 9.0 0.00 0.00 0.00 78 1017.9
20260507120036 53 300 2.0 8.0 0.00 0.00 0.00 77 1017.6
20260507114533 54 288 2.0 12.0 0.00 0.00 0.00 76 1017.6
20260507113029 55 278 4.0 11.0 0.00 0.00 0.00 76 1017.4
20260507111530 55 277 3.0 10.0 0.00 0.00 0.00 77 1017.3
20260507104535 55 267 2.0 8.0 0.00 0.00 0.00 75 1017.0
20260507100049 57 313 4.0 15.0 0.00 0.00 0.00 74 1017.1
20260507094535 57 304 4.0 9.0 0.00 0.00 0.00 76 1017.2
20260507093037 55 314 3.0 11.0 0.00 0.00 0.00 81 1017.2
20260507091535 53 347 1.0 5.0 0.00 0.00 0.00 83 1017.3
20260507090038 53 260 0.0 4.0 0.00 0.00 0.00 83 1017.2
20260507084644 54 240 0.0 3.0 0.00 0.00 0.00 82 1017.1
20260507083038 55 323 0.0 2.0 0.00 0.00 0.00 80 1017.1
20260507081537 56 292 0.0 1.0 0.00 0.00 0.00 76 1017.1
20260507080035 58 292 0.0 3.0 0.00 0.00 0.00 74 1017.2
20260507074609 59 335 2.0 7.0 0.00 0.00 0.00 74 1017.2
20260507073038 59 319 2.0 7.0 0.00 0.00 0.00 74 1017.1
20260507071545 58 280 2.0 7.0 0.00 0.00 0.00 76 1017.1
20260507070035 57 283 1.0 7.0 0.00 0.00 0.00 77 1017.1
20260507064537 58 281 0.0 5.0 0.00 0.00 0.00 75 1017.2
20260507063038 59 220 0.0 3.0 0.00 0.00 0.00 73 1017.2
20260507061535 60 259 0.0 4.0 0.00 0.00 0.00 71 1017.3
20260507060053 61 287 1.0 5.0 0.00 0.00 0.00 70 1017.4
20260507054535 61 289 2.0 10.0 0.00 0.00 0.00 70 1017.6
20260507053036 61 284 2.0 8.0 0.00 0.00 0.00 68 1017.7
20260507051535 61 246 0.0 4.0 0.00 0.00 0.00 67 1017.7
20260507050036 59 255 2.0 9.0 0.00 0.00 0.00 69 1017.7
20260507044607 58 245 1.0 7.0 0.00 0.00 0.00 68 1017.6
20260507043035 60 237 0.0 4.0 0.00 0.00 0.00 65 1017.6
20260507041534 61 210 0.0 4.0 0.00 0.00 0.00 62 1017.4
20260507040055 62 268 0.0 6.0 0.00 0.00 0.00 60 1017.2
20260507034557 65 17 0.0 3.0 0.00 0.00 0.00 56 1017.1
20260507034545 66 343 0.0 8.0 0.00 0.00 0.00 53 1017.0
20260507031540 66 261 2.0 8.0 0.00 0.00 0.00 54 1016.9
20260507030039 66 286 0.0 6.0 0.00 0.00 0.00 54 1016.9
20260507024539 66 255 0.0 5.0 0.00 0.00 0.00 54 1016.8
20260507023040 67 32 1.0 8.0 0.00 0.00 0.00 52 1016.6
20260507021538 68 352 1.0 7.0 0.00 0.00 0.00 50 1016.5
20260507020037 68 292 2.0 7.0 0.00 0.00 0.00 49 1016.4
20260507013043 69 299 4.0 14.0 0.00 0.00 0.00 48 1016.3
20260507011655 70 306 2.0 9.0 0.00 0.00 0.00 47 1016.3
20260507004549 71 307 1.0 6.0 0.00 0.00 0.00 46 1016.2
20260507003038 71 283 2.0 7.0 0.00 0.00 0.00 44 1016.1
20260507000034 72 278 3.0 13.0 0.00 0.00 0.00 44 1015.9
20260506234537 73 295 3.0 11.0 0.00 0.00 0.00 43 1015.7
20260506233036 75 292 5.0 12.0 0.00 0.00 0.00 42 1015.6
20260506231539 77 295 2.0 12.0 0.00 0.00 0.00 41 1015.6
20260506230039 76 269 4.0 14.0 0.00 0.00 0.00 42 1015.6
20260506224542 76 268 4.0 15.0 0.00 0.00 0.00 42 1015.6
20260506223038 77 294 5.0 18.0 0.00 0.00 0.00 42 1015.9
20260506221536 76 332 3.0 10.0 0.00 0.00 0.00 44 1016.2
20260506220108 77 324 3.0 14.0 0.00 0.00 0.00 42 1016.2
20260506220058 77 320 4.0 13.0 0.00 0.00 0.00 44 1016.1
20260506213036 76 276 5.0 13.0 0.00 0.00 0.00 45 1015.9
20260506211535 76 259 6.0 13.0 0.00 0.00 0.00 44 1015.6
20260506210051 76 278 7.0 18.0 0.00 0.00 0.00 45 1015.8
20260506204557 77 260 5.0 19.0 0.00 0.00 0.00 45 1016.0
20260506203116 77 262 4.0 11.0 0.00 0.00 0.00 46 1016.2
20260506201536 77 264 5.0 13.0 0.00 0.00 0.00 47 1016.1
20260506200038 76 265 6.0 15.0 0.00 0.00 0.00 49 1016.0